When you browse on this site, cookies collect data to enhance your experience and personalize the content and advertising you see.
Visit our Privacy Policy to learn more. By continuing to use the site, you agree to this use of cookies and data.
  • En España
  • Lista de países
  • Para 7 días
  • Temperatura del agua
  • El tiempo en el mapa
  • Informadores
  • user-avatar
    Iniciar sesión

    Tiempo cada hora Fuengirola

    Hoy, 20 Febrero, Jueves

    Tiempo Temperatura Precipitaciones Viento Presión Humedad
    00:00 +13°C° 0 mm 5 mps 768 mmHg 88%
    01:00 +13°C° 0 mm 5 mps 768 mmHg 88%
    02:00 +13°C° 0 mm 5 mps 767 mmHg 88%
    03:00 +13°C° 0 mm 5 mps 767 mmHg 88%
    04:00 +12°C° 0 mm 5 mps 766 mmHg 88%
    05:00 +12°C° 0 mm 5 mps 766 mmHg 88%
    06:00 +12°C° 0 mm 4 mps 766 mmHg 88%
    07:00 +13°C° 0 mm 4 mps 766 mmHg 83%
    08:00 +13°C° 0 mm 3 mps 766 mmHg 79%
    09:00 +14°C° 0 mm 3 mps 766 mmHg 74%
    10:00 +16°C° 0 mm 3 mps 766 mmHg 70%
    11:00 +17°C° 0 mm 4 mps 765 mmHg 65%
    12:00 +18°C° 0 mm 4 mps 765 mmHg 60%
    13:00 +18°C° 0 mm 4 mps 765 mmHg 61%
    14:00 +18°C° 0 mm 4 mps 764 mmHg 61%
    15:00 +18°C° 0 mm 4 mps 764 mmHg 62%
    16:00 +17°C° 0 mm 3 mps 764 mmHg 66%
    17:00 +16°C° 0 mm 3 mps 764 mmHg 70%
    18:00 +14°C° 0 mm 3 mps 764 mmHg 75%
    19:00 +14°C° 0 mm 3 mps 765 mmHg 77%
    20:00 +14°C° 0 mm 2 mps 765 mmHg 79%
    21:00 +14°C° 0 mm 2 mps 766 mmHg 81%
    22:00 +13°C° 0 mm 2 mps 766 mmHg 81%
    23:00 +12°C° 0 mm 3 mps 766 mmHg 81%

    Mañana, 21 Febrero, Viernes

    Tiempo Temperatura Precipitaciones Viento Presión Humedad
    00:00 +12°C° 0 mm 3 mps 767 mmHg 81%
    01:00 +12°C° 0 mm 3 mps 766 mmHg 80%
    02:00 +12°C° 0 mm 3 mps 766 mmHg 79%
    03:00 +12°C° 0 mm 3 mps 766 mmHg 77%
    04:00 +12°C° 0 mm 3 mps 766 mmHg 78%
    05:00 +12°C° 0 mm 3 mps 767 mmHg 78%
    06:00 +12°C° 0 mm 3 mps 767 mmHg 78%
    13:00 +19°C° 0 mm 5 mps 768 mmHg 58%
    14:00 +17°C° 0 mm 5 mps 768 mmHg 57%
    15:00 +17°C° 0 mm 5 mps 768 mmHg 56%
    16:00 +16°C° 0 mm 5 mps 768 mmHg 62%
    17:00 +15°C° 0 mm 4 mps 768 mmHg 68%
    18:00 +14°C° 0 mm 4 mps 768 mmHg 74%
    19:00 +13°C° 0 mm 4 mps 768 mmHg 76%
    20:00 +13°C° 0 mm 4 mps 769 mmHg 78%
    21:00 +12°C° 0 mm 3 mps 769 mmHg 81%
    22:00 +12°C° 0 mm 3 mps 769 mmHg 82%
    23:00 +12°C° 0 mm 3 mps 770 mmHg 83%

    Pasado mañana, 22 Febrero, Sábado

    Tiempo Temperatura Precipitaciones Viento Presión Humedad
    00:00 +12°C° 0 mm 3 mps 770 mmHg 84%
    01:00 +12°C° 0 mm 3 mps 770 mmHg 83%
    02:00 +11°C° 0 mm 3 mps 770 mmHg 82%
    03:00 +11°C° 0 mm 3 mps 770 mmHg 82%
    04:00 +11°C° 0 mm 3 mps 770 mmHg 81%
    05:00 +11°C° 0 mm 3 mps 770 mmHg 81%
    06:00 +11°C° 0 mm 3 mps 770 mmHg 81%
    07:00 +12°C° 0 mm 3 mps 770 mmHg 78%
    08:00 +13°C° 0 mm 4 mps 770 mmHg 76%
    09:00 +14°C° 0 mm 4 mps 771 mmHg 74%
    10:00 +15°C° 0 mm 5 mps 770 mmHg 68%
    11:00 +16°C° 0 mm 5 mps 770 mmHg 63%
    12:00 +19°C° 0 mm 5 mps 770 mmHg 57%
    13:00 +19°C° 0 mm 5 mps 770 mmHg 53%
    14:00 +19°C° 0 mm 5 mps 769 mmHg 49%
    15:00 +20°C° 0 mm 5 mps 769 mmHg 45%
    16:00 +17°C° 0 mm 5 mps 769 mmHg 50%
    17:00 +16°C° 0 mm 5 mps 769 mmHg 56%
    18:00 +14°C° 0 mm 4 mps 769 mmHg 61%
    19:00 +14°C° 0 mm 4 mps 770 mmHg 64%
    20:00 +13°C° 0 mm 4 mps 770 mmHg 66%
    21:00 +12°C° 0 mm 4 mps 771 mmHg 68%
    22:00 +12°C° 0 mm 4 mps 771 mmHg 73%
    23:00 +12°C° 0 mm 4 mps 771 mmHg 77%

    23 Febrero, Domingo

    Tiempo Temperatura Precipitaciones Viento Presión Humedad
    00:00 +11°C° 0 mm 4 mps 771 mmHg 81%
    01:00 +11°C° 0 mm 4 mps 771 mmHg 81%
    02:00 +11°C° 0 mm 4 mps 771 mmHg 82%
    03:00 +11°C° 0 mm 4 mps 770 mmHg 82%
    04:00 +11°C° 0 mm 4 mps 770 mmHg 80%
    05:00 +11°C° 0 mm 4 mps 770 mmHg 78%
    06:00 +11°C° 0 mm 3 mps 770 mmHg 76%
    07:00 +12°C° 0 mm 3 mps 771 mmHg 72%
    08:00 +14°C° 0 mm 3 mps 771 mmHg 68%
    09:00 +16°C° 0 mm 3 mps 771 mmHg 64%
    10:00 +17°C° 0 mm 4 mps 771 mmHg 58%
    11:00 +18°C° 0 mm 4 mps 771 mmHg 53%
    12:00 +19°C° 0 mm 5 mps 771 mmHg 47%
    13:00 +19°C° 0 mm 5 mps 770 mmHg 46%
    14:00 +20°C° 0 mm 5 mps 770 mmHg 46%
    15:00 +20°C° 0 mm 5 mps 769 mmHg 45%
    16:00 +18°C° 0 mm 4 mps 769 mmHg 50%
    17:00 +17°C° 0 mm 4 mps 769 mmHg 55%
    18:00 +14°C° 0 mm 3 mps 769 mmHg 60%
    19:00 +14°C° 0 mm 3 mps 770 mmHg 59%
    20:00 +14°C° 0 mm 2 mps 770 mmHg 58%
    21:00 +14°C° 0 mm 2 mps 770 mmHg 58%
    22:00 +14°C° 0 mm 2 mps 770 mmHg 59%
    23:00 +13°C° 0 mm 2 mps 770 mmHg 61%

    24 Febrero, Lunes

    Tiempo Temperatura Precipitaciones Viento Presión Humedad
    00:00 +13°C° 0 mm 2 mps 770 mmHg 63%
    01:00 +13°C° 0 mm 2 mps 770 mmHg 62%
    02:00 +13°C° 0 mm 2 mps 770 mmHg 62%
    03:00 +13°C° 0 mm 2 mps 769 mmHg 61%
    04:00 +13°C° 0 mm 2 mps 769 mmHg 60%
    05:00 +13°C° 0 mm 2 mps 769 mmHg 58%
    06:00 +13°C° 0 mm 1 mps 769 mmHg 57%
    07:00 +14°C° 0 mm 1 mps 770 mmHg 56%
    08:00 +15°C° 0 mm 1 mps 770 mmHg 55%
    09:00 +18°C° 0 mm 1 mps 770 mmHg 54%
    10:00 +19°C° 0 mm 1 mps 769 mmHg 51%
    11:00 +19°C° 0 mm 2 mps 769 mmHg 48%
    12:00 +20°C° 0 mm 2 mps 769 mmHg 45%
    13:00 +21°C° 0 mm 2 mps 768 mmHg 44%
    14:00 +21°C° 0 mm 2 mps 768 mmHg 44%
    15:00 +22°C° 0 mm 1 mps 767 mmHg 43%
    16:00 +21°C° 0 mm 1 mps 767 mmHg 50%
    17:00 +19°C° 0 mm 1 mps 767 mmHg 56%
    18:00 +16°C° 0 mm 1 mps 767 mmHg 62%
    19:00 +16°C° 0 mm 1 mps 767 mmHg 65%
    20:00 +15°C° 0 mm 1 mps 768 mmHg 67%
    21:00 +14°C° 0 mm 0 mps 768 mmHg 70%
    22:00 +13°C° 0 mm 0 mps 768 mmHg 70%
    23:00 +13°C° 0 mm 0 mps 768 mmHg 70%

    25 Febrero, Martes

    Tiempo Temperatura Precipitaciones Viento Presión Humedad
    00:00 +14°C° 0 mm 1 mps 768 mmHg 70%
    01:00 +14°C° 0 mm 1 mps 768 mmHg 68%
    02:00 +14°C° 0 mm 1 mps 768 mmHg 66%
    03:00 +14°C° 0 mm 1 mps 767 mmHg 64%
    04:00 +14°C° 0 mm 2 mps 767 mmHg 62%
    05:00 +14°C° 0 mm 2 mps 767 mmHg 60%
    06:00 +14°C° 0 mm 2 mps 767 mmHg 59%
    07:00 +15°C° 0 mm 2 mps 767 mmHg 57%
    08:00 +17°C° 0 mm 2 mps 768 mmHg 55%
    09:00 +18°C° 0 mm 2 mps 768 mmHg 54%
    10:00 +20°C° 0 mm 3 mps 768 mmHg 48%
    11:00 +21°C° 0 mm 3 mps 767 mmHg 43%
    12:00 +23°C° 0 mm 4 mps 767 mmHg 38%
    13:00 +23°C° 0 mm 4 mps 767 mmHg 37%
    14:00 +25°C° 0 mm 4 mps 766 mmHg 37%
    15:00 +25°C° 0 mm 5 mps 766 mmHg 36%
    16:00 +22°C° 0 mm 5 mps 766 mmHg 43%
    17:00 +21°C° 0 mm 5 mps 766 mmHg 50%
    18:00 +19°C° 0 mm 5 mps 766 mmHg 57%
    19:00 +18°C° 0 mm 4 mps 766 mmHg 59%
    20:00 +17°C° 0 mm 4 mps 766 mmHg 60%
    21:00 +15°C° 0 mm 4 mps 766 mmHg 61%
    22:00 +15°C° 0 mm 4 mps 766 mmHg 60%
    23:00 +15°C° 0 mm 4 mps 766 mmHg 60%
    Mostrar más